Simultaneous Nadir Overpasses (SNOs) Predictions

Prediction of SNOs over PacNW region [( 10.00, 139.50) to ( 22.70, 165.60)] between AQUA and NPP Satellites:

Table of predicted SNOs over PacNW region for the next 30.0 days since TLE Epoch: 11/21/2015
Index Date (AQUA) Time (AQUA) AQUA Lat,Lon Date (NPP) Time (NPP) NPP Lat,Lon Distance(km) Time Diff (sec)
1 11/22/2015 02:41:46 21.31, 160.20 11/22/2015 02:38:39 21.03, 158.85 143.51 187
2 11/27/2015 15:09:49 22.61, 159.83 11/27/2015 15:13:17 24.26, 157.47 303.21 208
3 11/30/2015 03:30:11 17.31, 148.74 11/30/2015 03:28:11 16.94, 147.14 175.46 120
4 12/08/2015 02:42:04 22.02, 160.01 12/08/2015 02:38:45 21.75, 158.65 143.83 199
5 12/13/2015 15:09:49 22.59, 159.82 12/13/2015 15:13:17 23.79, 157.32 288.45 208
6 12/16/2015 03:30:13 17.58, 148.69 12/16/2015 03:28:08 17.23, 147.05 178.81 125
